Location: Bobcat Ridge
(40.4796°N, 105.2255°W)
Time: 20:31:08
(UTC-06:00)

ISS - Visible Passes

Search period start: 24 July 2017 00:00
Search period end: 03 August 2017 00:00
Orbit: 400 x 408 km, 51.6° (Epoch: 25 July)

Date Brightness Start Highest point End Pass type
(mag) Time Alt. Az. Time Alt. Az. Time Alt. Az.
24 Jul -0.3 00:45:01 10° NNW 00:46:19 12° N 00:47:38 10° NNE visible
24 Jul -0.7 02:21:42 10° NNW 02:23:50 16° NNE 02:26:00 10° ENE visible
24 Jul -3.5 03:57:33 10° NW 04:00:48 68° NE 04:04:02 10° ESE visible
24 Jul -2.2 22:13:27 10° W 22:16:30 37° NNW 22:19:33 10° NE visible
24 Jul -0.4 23:52:01 10° NW 23:53:41 13° N 23:55:22 10° NNE visible
25 Jul -0.5 01:29:33 10° NNW 01:31:14 13° N 01:32:56 10° NE visible
25 Jul -2.4 03:07:44 33° N 03:08:25 37° NNE 03:11:28 10° E visible
25 Jul -2.8 04:42:04 10° WNW 04:44:45 24° SW 04:47:27 10° S visible
25 Jul -3.4 21:20:53 10° WSW 21:24:06 66° NW 21:27:20 10° NE visible
25 Jul -0.7 22:58:56 10° WNW 23:01:04 16° NNW 23:03:12 10° NNE visible
26 Jul -0.4 00:37:15 10° NNW 00:38:35 12° N 00:39:30 11° NNE visible
26 Jul -1.1 22:05:54 10° WNW 22:08:29 21° NNW 22:11:05 10° NNE visible
26 Jul -0.5 23:44:39 10° NNW 23:45:54 12° N 23:47:09 10° NNE visible
27 Jul -1.8 21:13:01 10° W 21:15:58 31° NNW 21:18:55 10° NE visible
27 Jul -0.6 22:51:41 10° NW 22:53:12 13° N 22:54:44 10° NNE visible
28 Jul -0.5 00:28:54 10° NNW 00:29:56 13° N 00:29:56 13° N visible
28 Jul -0.8 21:58:34 10° NW 22:00:32 15° NNW 22:02:30 10° NNE visible
28 Jul -0.7 23:36:38 10° NNW 23:38:04 12° N 23:39:05 11° NNE visible
29 Jul -1.0 21:05:27 10° WNW 21:07:54 19° NNW 21:10:20 10° NNE visible
29 Jul -0.7 22:44:07 10° NNW 22:45:21 12° N 22:46:35 10° NNE visible
30 Jul -0.4 00:20:19 10° NNW 00:20:52 13° NNW 00:20:52 13° NNW visible
30 Jul -0.7 21:51:13 10° NNW 21:52:37 12° N 21:54:01 10° NNE visible
30 Jul -0.9 23:28:09 10° NNW 23:30:05 15° NNE 23:30:05 15° NNE visible
31 Jul -0.9 20:58:05 10° NW 20:59:54 14° NNW 21:01:43 10° NNE visible
31 Jul -0.9 22:35:54 10° NNW 22:37:27 13° N 22:38:59 10° NE visible
01 Aug -0.4 00:11:42 10° NW 00:11:56 11° NW 00:11:56 11° NW visible
01 Aug -0.8 21:43:26 10° NNW 21:44:41 12° N 21:45:56 10° NNE visible
01 Aug -1.2 23:19:28 10° NNW 23:21:11 19° N 23:21:11 19° N visible
02 Aug -0.9 20:50:36 10° NNW 20:51:55 12° N 20:53:13 10° NNE visible
02 Aug -1.3 22:27:15 10° NNW 22:29:25 16° NNE 22:30:27 14° NE visible
